sat.trackr.live / text

‹ back to catalog

STARLINK-32492

NORAD 62050 · 2024-216U

PAYLOAD ACTIVE UNKNOWN

§ Identity

Operator
Country
US
Launch date
2024-11-21
Launch site
AFETR
Launch vehicle
Mass (kg)
RCS (m²)

Purposes: comms

External: N2YO · Heavens-Above · Gunter

§ Orbital elements

Epoch: 2026-05-25T04:21:15.132960Z

Period
94.27 min
Inclination
43.0002°
Eccentricity
0.0001370
Mean motion
15.27588074 rev/d
Perigee alt
482.1 km
Apogee alt
484.0 km
Semi-major
6,861.2 km
B*
4.5362e-4
RAAN
191.2968°
Arg perigee
270.2553°
Mean anomaly
89.8141°
Rev number
8,549

§ Raw data

STARLINK-324921 62050U 24216U   26145.18142515  .00012244  00000+0  45362-3 0  99982 62050  43.0002 191.2968 0001370 270.2553  89.8141 15.27588074 85499

JSON: /api/v1/satellites/62050 · /tle

For live sub-satellite position, see the globe view (requires WebGL).

§ Visibility from observer

Set your observer location to see the next 7 days of passes ≥ 10°. The values pass through the URL so the page stays shareable.

No JS? Fill the form by hand. The geolocation button needs JavaScript.